W2GLD-13 Weather Reports


time (UTC)temp
C
wind
direction
speed
KPH
gust
KPH
rain 1hr
cm
rain 24hr
cm
rain mn
cm
humidity
%
barometer
mb
20260507003005 11 360 0.0 8.0 0.00 0.00 0.00 45 1011.1
20260507001505 11 360 0.0 8.0 0.00 0.00 0.00 45 1011.1
20260507000018 11 0 1.6 8.0 0.00 0.00 0.00 45 1010.7
20260507000005 11 360 0.0 8.0 0.00 0.00 0.00 46 1010.9
20260506234505 11 360 0.0 8.0 0.00 0.00 0.00 46 1010.9
20260506233005 11 360 0.0 8.0 0.00 0.00 0.00 46 1010.9
20260506231505 11 360 0.0 8.0 0.00 0.00 0.00 46 1010.9
20260506230020 11 0 1.6 8.0 0.00 0.00 0.00 46 1010.5
20260506230006 11 360 0.0 6.4 0.00 0.00 0.00 46 1010.9
20260506224506 11 360 0.0 6.4 0.00 0.00 0.00 46 1010.9
20260506223006 11 360 0.0 6.4 0.00 0.00 0.00 46 1010.9
20260506221505 11 360 0.0 6.4 0.00 0.00 0.00 46 1010.9
20260506220020 11 0 1.6 6.4 0.00 0.00 0.00 46 1010.6
20260506220005 11 360 0.0 9.7 0.00 0.00 0.00 47 1010.8
20260506214505 11 360 0.0 9.7 0.00 0.00 0.00 47 1010.8
20260506213005 11 360 0.0 9.7 0.00 0.00 0.00 47 1010.8
20260506211505 11 360 0.0 9.7 0.00 0.00 0.00 47 1010.8
20260506210020 11 0 1.6 9.7 0.00 0.00 0.00 47 1010.5
20260506210005 11 360 0.0 12.9 0.00 0.00 0.00 46 1011.0
20260506204505 11 360 0.0 12.9 0.00 0.00 0.00 46 1011.0
20260506203006 11 360 0.0 12.9 0.00 0.00 0.00 46 1011.0
20260506201506 11 360 0.0 12.9 0.00 0.00 0.00 46 1011.0
20260506200100 11 0 3.2 12.9 0.00 0.00 0.00 46 1010.8
20260506200005 10 360 0.0 12.9 0.00 0.00 0.00 44 1011.3
20260506194505 10 360 0.0 12.9 0.00 0.00 0.00 44 1011.3
20260506193005 10 360 0.0 12.9 0.00 0.00 0.00 44 1011.3
20260506191505 10 360 0.0 12.9 0.00 0.00 0.00 44 1011.3
20260506190020 10 0 3.2 12.9 0.00 0.00 0.00 44 1011.1
20260506190006 10 360 0.0 12.9 0.00 0.00 0.00 47 1011.2
20260506184505 10 360 0.0 12.9 0.00 0.00 0.00 47 1011.2
20260506183005 10 360 0.0 12.9 0.00 0.00 0.00 47 1011.2
20260506181506 10 360 0.0 12.9 0.00 0.00 0.00 47 1011.2
20260506180159 10 0 3.2 12.9 0.00 0.00 0.00 47 1010.9
20260506180047 10 360 1.6 8.0 0.00 0.00 0.00 47 1011.2
20260506180006 9 360 0.0 12.9 0.00 0.00 0.00 55 1011.5
20260506174506 9 360 0.0 12.9 0.00 0.00 0.00 55 1011.5
20260506173005 9 360 0.0 12.9 0.00 0.00 0.00 55 1011.5
20260506171505 9 360 0.0 12.9 0.00 0.00 0.00 55 1011.5
20260506170019 9 0 3.2 12.9 0.00 0.00 0.00 55 1011.2
20260506170005 8 360 0.0 14.5 0.00 0.00 0.00 55 1011.7
20260506164505 8 360 0.0 14.5 0.00 0.00 0.00 55 1011.7
20260506163005 8 360 0.0 14.5 0.00 0.00 0.00 55 1011.7
20260506161505 8 360 0.0 14.5 0.00 0.00 0.00 55 1011.7
20260506160019 9 0 3.2 14.5 0.00 0.00 0.00 55 1011.4
20260506160005 8 360 0.0 16.1 0.00 0.00 0.00 59 1011.3
20260506154506 8 360 0.0 16.1 0.00 0.00 0.00 59 1011.3
20260506153006 8 360 0.0 16.1 0.00 0.00 0.00 59 1011.3
20260506151506 8 360 0.0 16.1 0.00 0.00 0.00 59 1011.3
20260506150019 8 0 3.2 16.1 0.00 0.03 0.00 59 1011.0
20260506150005 7 360 0.0 12.9 0.00 0.00 0.00 67 1010.4
20260506144505 7 360 0.0 12.9 0.00 0.00 0.00 67 1010.4
20260506143005 7 360 0.0 12.9 0.00 0.00 0.00 67 1010.4
20260506141505 7 360 0.0 12.9 0.00 0.00 0.00 67 1010.4
20260506140019 8 0 3.2 12.9 0.00 0.03 0.00 67 1010.1
20260506140005 6 360 0.0 8.0 0.00 0.00 0.00 63 1009.9
20260506134505 6 360 0.0 8.0 0.00 0.00 0.00 63 1009.9
20260506133006 6 360 0.0 8.0 0.00 0.00 0.00 63 1009.9
20260506131506 6 360 0.0 8.0 0.00 0.00 0.00 63 1009.9
20260506130039 7 0 1.6 8.0 0.00 0.03 0.00 63 1009.5
20260506130006 5 0.0 4.8 0.00 0.00 0.00 69 1009.1
20260506124505 5 0.0 4.8 0.00 0.00 0.00 69 1009.1
20260506123005 5 0.0 4.8 0.00 0.00 0.00 69 1009.1
20260506121505 5 0.0 4.8 0.00 0.00 0.00 69 1009.1
20260506120019 5 0.0 4.8 0.00 0.03 0.00 69 1008.7
20260506120005 5 0.0 1.6 0.00 0.00 0.00 74 1008.7
20260506114505 5 0.0 1.6 0.00 0.00 0.00 74 1008.7
20260506113005 5 0.0 1.6 0.00 0.00 0.00 74 1008.7
20260506111506 5 0.0 1.6 0.00 0.00 0.00 74 1008.7
20260506110036 5 0.0 1.6 0.00 0.03 0.00 74 1008.3
20260506110006 7 0.0 4.8 0.00 0.00 0.00 65 1008.1
20260506104506 7 0.0 4.8 0.00 0.00 0.00 65 1008.1
20260506103005 7 0.0 4.8 0.00 0.00 0.00 65 1008.1
20260506101505 7 0.0 4.8 0.00 0.00 0.00 65 1008.1
20260506100019 7 0.0 4.8 0.00 0.03 0.00 65 1007.9
20260506100005 7 0.0 4.8 0.00 0.00 0.00 61 1007.4
20260506094505 7 0.0 4.8 0.00 0.00 0.00 61 1007.4
20260506093005 7 0.0 4.8 0.00 0.00 0.00 61 1007.4
20260506091505 7 0.0 4.8 0.00 0.00 0.00 61 1007.4
20260506090020 7 0.0 4.8 0.00 0.03 0.00 61 1007.2
20260506090005 7 0.0 4.8 0.00 0.00 0.00 62 1007.3
20260506084506 7 0.0 4.8 0.00 0.00 0.00 62 1007.3
20260506083006 7 0.0 4.8 0.00 0.00 0.00 62 1007.3
20260506081505 7 0.0 4.8 0.00 0.00 0.00 62 1007.3
20260506073005 8 0.0 3.2 0.00 0.00 0.00 62 1007.1
20260506071505 8 0.0 3.2 0.00 0.00 0.00 62 1007.1
20260506061506 8 0.0 4.8 0.00 0.00 0.00 61 1007.5
20260506044505 8 0.0 3.2 0.00 0.00 0.00 60 1007.0
20260506043005 8 0.0 3.2 0.00 0.00 0.00 60 1007.0
20260506041505 8 0.0 3.2 0.00 0.00 0.00 60 1007.0
20260506040019 8 0.0 3.2 0.00 0.15 0.15 60 1006.8
20260506040006 9 0.0 4.8 0.00 0.00 0.00 57 1007.0
20260506034506 9 0.0 4.8 0.00 0.00 0.00 57 1007.0
20260506033006 9 0.0 4.8 0.00 0.00 0.00 57 1007.0
20260506031505 9 0.0 4.8 0.00 0.00 0.00 57 1007.0
20260506030019 9 0.0 4.8 0.00 0.15 0.15 57 1006.9
20260506030005 10 0.0 3.2 0.00 0.00 0.00 54 1006.7
20260506024505 10 0.0 3.2 0.00 0.00 0.00 54 1006.7
20260506023005 10 0.0 3.2 0.00 0.00 0.00 54 1006.7
20260506021505 10 0.0 3.2 0.00 0.00 0.00 54 1006.7
20260506020019 10 0.0 3.2 0.00 0.15 0.15 54 1006.7
20260506020005 10 360 0.0 6.4 0.00 0.00 0.00 50 1006.1
20260506014506 10 360 0.0 6.4 0.00 0.00 0.00 50 1006.1
20260506013006 10 360 0.0 6.4 0.00 0.00 0.00 50 1006.1
20260506011505 10 360 0.0 6.4 0.00 0.00 0.00 50 1006.1
20260506010019 10 0 1.6 6.4 0.00 0.15 0.15 50 1006.2
20260506010005 11 360 0.0 8.0 0.00 0.00 0.00 47 1006.2
20260506004505 11 360 0.0 8.0 0.00 0.00 0.00 47 1006.2